This is the latest recevied weather packets stored in our database for station/object GOLDWX. If no packets are shown the sender has not sent any weather packets the latest 10 day(s).
| Time | Temp. | Humidity | Pressure | Rain* | Wind** | Luminosity | Snow |
|---|---|---|---|---|---|---|---|
| 1778075811 | 11.11° C | 60% | 1017.2 hPa | 0 mm | - | - | - |
| 1778075209 | 10° C | 62% | 1017.3 hPa | 0 mm | - | - | - |
| 1778074909 | 10° C | 63% | 1017.1 hPa | 0 mm | - | - | - |
| 1778074304 | 9.44° C | 63% | 1017.1 hPa | 0 mm | - | - | - |
| 1778074003 | 8.89° C | 63% | 1017.1 hPa | 0 mm | - | - | - |
| 1778073401 | 8.89° C | 63% | 1017.1 hPa | 0 mm | - | - | - |
| 1778073101 | 8.89° C | 63% | 1017 hPa | 0 mm | - | - | - |
| 1778072499 | 9.44° C | 61% | 1016.9 hPa | 0 mm | - | - | - |
| 1778072198 | 9.44° C | 59% | 1016.6 hPa | 0 mm | - | - | - |
| 1778071296 | 10° C | 60% | 1016.4 hPa | 0 mm | - | - | - |
| 1778070692 | 9.44° C | 61% | 1016.4 hPa | 0 mm | - | - | - |
| 1778070392 | 8.89° C | 62% | 1016.1 hPa | 0 mm | - | - | - |
| 1778069790 | 8.89° C | 62% | 1016.1 hPa | 0 mm | - | - | - |
| 1778069489 | 8.89° C | 62% | 1016 hPa | 0 mm | - | - | - |
| 1778068887 | 8.89° C | 62% | 1016 hPa | 0 mm | - | - | - |
| 1778068587 | 8.89° C | 62% | 1015.9 hPa | 0 mm | - | - | - |
| 1778067985 | 8.89° C | 62% | 1015.8 hPa | 0 mm | - | - | - |
| 1778067684 | 8.89° C | 61% | 1015.8 hPa | 0 mm | - | - | - |
| 1778067082 | 8.89° C | 61% | 1015.7 hPa | 0 mm | - | - | - |
| 1778066782 | 8.89° C | 61% | 1015.7 hPa | 0 mm | - | - | - |
| 1778066180 | 9.44° C | 60% | 1015.7 hPa | 0 mm | - | - | - |
| 1778065879 | 9.44° C | 59% | 1015.7 hPa | 0 mm | - | - | - |
| 1778065277 | 9.44° C | 59% | 1015.7 hPa | 0 mm | - | - | - |
| 1778064977 | 9.44° C | 60% | 1015.6 hPa | 0 mm | - | - | - |
| 1778064375 | 8.89° C | 62% | 1015.5 hPa | 0 mm | - | - | - |
* Rain since midnight (hover to see other rain measurements)
** Current wind speed in m/s (hover to see current wind gust speed)